QPF
0.00 0.00 0.00 0.00 0.00 0.00 0.00 0.00 0.00 0.00 0.00 0.00 0.00 0.00 0.01 0.01 0.01 0.00 0.01 0.01 0.01 0.01 0.02 0.04 0.08 0.13 0.23 0.36 0.45 0.48 0.40 0.28 0.24 0.22 0.20 0.18 0.17 0.20 0.21 0.21 0.23 0.24 0.26 0.26
0.00 0.00 0.00 0.00 0.00 0.00 0.00 0.00 0.00 0.00 0.00 0.00 0.01 0.01 0.01 0.02 0.01 0.01 0.01 0.01 0.01 0.01 0.02 0.04 0.06 0.11 0.21 0.36 0.49 0.56 0.58 0.50 0.47 0.43 0.37 0.33 0.30 0.27 0.26 0.25 0.26 0.28 0.27 0.26
0.00 0.00 0.00 0.00 0.00 0.00 0.00 0.00 0.00 0.00 0.01 0.02 0.02 0.02 0.03 0.03 0.03 0.02 0.02 0.02 0.02 0.02 0.02 0.03 0.05 0.09 0.13 0.21 0.35 0.47 0.57 0.71 0.75 0.70 0.67 0.56 0.47 0.36 0.27 0.24 0.24 0.24 0.25 0.25
0.00 0.00 0.00 0.00 0.00 0.00 0.00 0.00 0.00 0.00 0.01 0.02 0.02 0.03 0.04 0.03 0.03 0.03 0.04 0.03 0.04 0.03 0.03 0.04 0.05 0.10 0.18 0.25 0.31 0.43 0.60 0.79 0.91 0.88 0.83 0.80 0.65 0.52 0.44 0.34 0.27 0.22 0.21 0.20
0.00 0.00 0.00 0.00 0.00 0.00 0.00 0.00 0.00 0.00 0.00 0.01 0.02 0.02 0.05 0.05 0.03 0.04 0.04 0.05 0.05 0.05 0.05 0.07 0.08 0.12 0.18 0.27 0.35 0.41 0.54 0.71 0.83 0.88 0.83 0.76 0.73 0.61 0.50 0.38 0.29 0.25 0.22 0.20
0.00 0.00 0.00 0.00 0.00 0.00 0.00 0.00 0.00 0.00 0.00 0.01 0.01 0.02 0.05 0.08 0.06 0.05 0.05 0.06 0.07 0.07 0.07 0.07 0.08 0.10 0.17 0.21 0.27 0.35 0.39 0.51 0.61 0.65 0.66 0.67 0.68 0.65 0.57 0.50 0.38 0.31 0.23 0.16
0.00 0.00 0.00 0.00 0.00 0.00 0.00 0.00 0.00 0.00 0.01 0.02 0.02 0.03 0.06 0.10 0.09 0.07 0.06 0.07 0.07 0.06 0.07 0.07 0.07 0.09 0.15 0.20 0.21 0.24 0.29 0.30 0.35 0.43 0.49 0.55 0.60 0.60 0.53 0.45 0.38 0.30 0.23 0.16
0.00 0.00 0.00 0.00 0.00 0.00 0.00 0.00 0.00 0.00 0.00 0.02 0.04 0.06 0.07 0.09 0.09 0.08 0.08 0.08 0.08 0.06 0.06 0.07 0.06 0.06 0.09 0.14 0.19 0.22 0.20 0.20 0.23 0.27 0.30 0.34 0.36 0.35 0.32 0.31 0.26 0.20 0.16 0.13
0.00 0.00 0.00 0.00 0.00 0.00 0.00 0.00 0.00 0.00 0.00 0.01 0.05 0.06 0.07 0.09 0.07 0.09 0.09 0.08 0.06 0.05 0.05 0.05 0.05 0.05 0.06 0.11 0.15 0.23 0.22 0.19 0.19 0.21 0.23 0.23 0.24 0.22 0.19 0.19 0.18 0.15 0.13 0.10
0.00 0.00 0.00 0.00 0.00 0.00 0.00 0.00 0.00 0.00 0.00 0.01 0.04 0.08 0.07 0.11 0.13 0.13 0.10 0.09 0.07 0.05 0.04 0.04 0.04 0.04 0.05 0.09 0.15 0.21 0.23 0.21 0.20 0.19 0.18 0.16 0.16 0.15 0.15 0.15 0.15 0.13 0.11 0.09
0.00 0.00 0.00 0.00 0.00 0.00 0.00 0.00 0.00 0.00 0.00 0.01 0.02 0.05 0.06 0.09 0.14 0.15 0.12 0.11 0.10 0.08 0.06 0.05 0.05 0.04 0.04 0.05 0.09 0.16 0.18 0.19 0.19 0.21 0.19 0.16 0.13 0.12 0.11 0.13 0.11 0.09 0.08 0.08
0.00 0.00 0.00 0.00 0.00 0.00 0.00 0.00 0.00 0.00 0.00 0.01 0.01 0.03 0.07 0.10 0.14 0.16 0.15 0.13 0.11 0.10 0.09 0.07 0.06 0.04 0.04 0.04 0.05 0.09 0.11 0.12 0.12 0.13 0.14 0.13 0.12 0.08 0.07 0.06 0.05 0.03 0.02 0.02
0.00 0.00 0.00 0.00 0.01 0.01 0.01 0.01 0.01 0.00 0.00 0.01 0.01 0.03 0.08 0.12 0.24 0.30 0.26 0.17 0.11 0.09 0.07 0.06 0.04 0.03 0.03 0.04 0.04 0.05 0.05 0.05 0.05 0.05 0.06 0.08 0.07 0.05 0.04 0.03 0.02 0.01 0.01 0.00
0.01 0.01 0.01 0.01 0.01 0.01 0.01 0.01 0.01 0.01 0.01 0.01 0.01 0.02 0.05 0.09 0.18 0.26 0.26 0.22 0.15 0.10 0.08 0.06 0.04 0.04 0.05 0.04 0.03 0.03 0.03 0.02 0.03 0.03 0.02 0.02 0.03 0.02 0.02 0.02 0.01 0.01 0.00 0.00
0.01 0.01 0.01 0.01 0.02 0.02 0.02 0.02 0.01 0.01 0.01 0.01 0.02 0.02 0.04 0.03 0.06 0.15 0.19 0.16 0.14 0.12 0.09 0.07 0.05 0.04 0.04 0.02 0.01 0.02 0.02 0.01 0.02 0.01 0.01 0.01 0.01 0.01 0.01 0.01 0.01 0.00 0.00 0.00
0.01 0.02 0.02 0.02 0.03 0.02 0.02 0.01 0.01 0.01 0.01 0.02 0.02 0.02 0.03 0.04 0.04 0.06 0.10 0.11 0.09 0.08 0.08 0.06 0.04 0.05 0.04 0.02 0.01 0.01 0.01 0.01 0.01 0.01 0.01 0.01 0.01 0.01 0.01 0.00 0.00 0.00 0.00 0.00
0.01 0.01 0.01 0.02 0.02 0.03 0.03 0.02 0.02 0.02 0.02 0.02 0.03 0.04 0.04 0.06 0.05 0.05 0.06 0.06 0.06 0.05 0.05 0.05 0.04 0.04 0.03 0.02 0.01 0.01 0.01 0.00 0.01 0.01 0.00 0.00 0.00 0.00 0.00 0.00 0.00 0.00 0.00 0.00
0.00 0.01 0.02 0.02 0.03 0.04 0.04 0.03 0.02 0.01 0.01 0.02 0.04 0.06 0.07 0.08 0.08 0.10 0.08 0.07 0.07 0.07 0.05 0.05 0.04 0.04 0.03 0.02 0.02 0.01 0.00 0.00 0.00 0.00 0.00 0.00 0.00 0.00 0.00 0.00 0.00 0.00 0.00 0.00
0.00 0.01 0.02 0.02 0.02 0.02 0.02 0.03 0.02 0.01 0.01 0.01 0.03 0.04 0.04 0.06 0.07 0.11 0.09 0.09 0.10 0.10 0.08 0.05 0.05 0.05 0.05 0.03 0.02 0.01 0.01 0.00 0.00 0.00 0.00 0.00 0.00 0.00 0.00 0.00 0.00 0.00 0.00 0.00
0.00 0.01 0.01 0.00 0.01 0.01 0.02 0.02 0.01 0.01 0.01 0.01 0.01 0.02 0.03 0.03 0.04 0.08 0.08 0.08 0.08 0.09 0.07 0.05 0.05 0.04 0.03 0.03 0.02 0.01 0.01 0.00 0.00 0.00 0.00 0.00 0.00 0.00 0.00 0.00 0.00 0.00 0.00 0.00
0.00 0.00 0.00 0.00 0.00 0.00 0.01 0.01 0.01 0.01 0.01 0.01 0.01 0.02 0.03 0.04 0.03 0.03 0.05 0.07 0.08 0.07 0.07 0.04 0.03 0.03 0.02 0.02 0.01 0.01 0.01 0.00 0.00 0.00 0.00 0.00 0.00 0.00 0.00 0.00 0.00 0.00 0.00 0.00
0.00 0.00 0.00 0.00 0.00 0.00 0.00 0.00 0.00 0.00 0.00 0.00 0.01 0.02 0.05 0.06 0.04 0.03 0.03 0.05 0.06 0.06 0.06 0.04 0.03 0.02 0.02 0.02 0.01 0.01 0.01 0.00 0.00 0.00 0.00 0.00 0.00 0.00 0.00 0.00 0.00 0.00 0.00 0.00
0.00 0.00 0.00 0.00 0.00 0.00 0.00 0.00 0.00 0.00 0.00 0.01 0.02 0.02 0.03 0.03 0.03 0.03 0.03 0.03 0.05 0.04 0.03 0.03 0.03 0.02 0.02 0.02 0.01 0.01 0.00 0.00 0.00 0.00 0.00 0.00 0.00 0.00 0.00 0.00 0.00 0.00 0.00 0.00
0.00 0.00 0.00 0.00 0.00 0.00 0.00 0.00 0.00 0.00 0.00 0.00 0.01 0.02 0.03 0.04 0.03 0.03 0.02 0.03 0.04 0.04 0.03 0.03 0.03 0.02 0.02 0.02 0.01 0.01 0.01 0.00 0.00 0.00 0.00 0.00 0.00 0.00 0.00 0.00 0.00 0.00 0.00 0.00
0.00 0.00 0.00 0.00 0.00 0.00 0.00 0.00 0.00 0.00 0.00 0.00 0.01 0.01 0.03 0.04 0.05 0.03 0.02 0.02 0.03 0.03 0.03 0.03 0.02 0.01 0.01 0.01 0.01 0.01 0.01 0.00 0.00 0.00 0.00 0.00 0.00 0.00 0.00 0.00 0.00 0.00 0.00 0.00
0.00 0.00 0.00 0.00 0.00 0.00 0.00 0.00 0.00 0.00 0.00 0.00 0.01 0.01 0.02 0.02 0.03 0.02 0.02 0.02 0.02 0.02 0.02 0.02 0.01 0.01 0.01 0.02 0.01 0.01 0.00 0.00 0.00 0.00 0.00 0.00 0.00 0.00 0.00 0.00 0.00 0.00 0.00 0.00
MSLP
1012.48 1013.16 1013.65 1013.92 1013.97 1013.86 1013.62 1013.31 1012.97 1012.62 1012.26 1011.88 1011.47 1011.02 1010.53 1010.02 1009.51 1009.04 1008.64 1008.34 1008.13 1008.03 1008.02 1008.10 1008.23 1008.41 1008.65 1008.95 1009.32 1009.78 1010.33 1010.97 1011.69 1012.45 1013.22 1013.97 1014.66 1015.26 1015.78 1016.20 1016.54 1016.83 1017.08 1017.33
1012.60 1013.14 1013.48 1013.61 1013.57 1013.40 1013.17 1012.93 1012.70 1012.47 1012.25 1012.00 1011.69 1011.31 1010.86 1010.36 1009.86 1009.39 1008.99 1008.71 1008.53 1008.47 1008.50 1008.59 1008.72 1008.87 1009.06 1009.28 1009.57 1009.95 1010.45 1011.07 1011.79 1012.60 1013.45 1014.28 1015.05 1015.74 1016.30 1016.76 1017.11 1017.39 1017.63 1017.86
1012.51 1012.91 1013.09 1013.10 1012.97 1012.78 1012.60 1012.45 1012.36 1012.30 1012.24 1012.13 1011.94 1011.64 1011.24 1010.77 1010.29 1009.84 1009.47 1009.22 1009.10 1009.09 1009.16 1009.27 1009.39 1009.50 1009.61 1009.73 1009.92 1010.20 1010.62 1011.19 1011.91 1012.75 1013.66 1014.57 1015.44 1016.21 1016.86 1017.36 1017.75 1018.05 1018.30 1018.53
1012.27 1012.50 1012.54 1012.44 1012.27 1012.10 1011.99 1011.98 1012.05 1012.16 1012.27 1012.31 1012.23 1012.02 1011.68 1011.25 1010.79 1010.38 1010.06 1009.87 1009.81 1009.85 1009.97 1010.10 1010.20 1010.27 1010.29 1010.31 1010.37 1010.53 1010.85 1011.35 1012.04 1012.89 1013.84 1014.83 1015.79 1016.66 1017.39 1017.97 1018.42 1018.75 1019.02 1019.26
1011.94 1012.02 1011.94 1011.76 1011.58 1011.46 1011.46 1011.59 1011.82 1012.11 1012.38 1012.55 1012.58 1012.44 1012.15 1011.76 1011.35 1010.98 1010.72 1010.59 1010.60 1010.72 1010.88 1011.04 1011.14 1011.15 1011.09 1010.99 1010.93 1010.96 1011.16 1011.58 1012.22 1013.05 1014.03 1015.07 1016.11 1017.06 1017.88 1018.54 1019.05 1019.43 1019.74 1020.00
1011.61 1011.55 1011.38 1011.17 1011.00 1010.96 1011.07 1011.35 1011.74 1012.18 1012.57 1012.85 1012.95 1012.87 1012.63 1012.27 1011.90 1011.59 1011.39 1011.34 1011.44 1011.63 1011.86 1012.05 1012.15 1012.13 1011.99 1011.80 1011.61 1011.52 1011.61 1011.93 1012.50 1013.30 1014.27 1015.35 1016.43 1017.45 1018.33 1019.06 1019.62 1020.06 1020.40 1020.69
1011.37 1011.21 1010.97 1010.75 1010.63 1010.67 1010.89 1011.29 1011.80 1012.34 1012.82 1013.16 1013.31 1013.26 1013.04 1012.72 1012.39 1012.14 1012.02 1012.06 1012.25 1012.53 1012.83 1013.07 1013.19 1013.15 1012.98 1012.71 1012.43 1012.24 1012.22 1012.45 1012.95 1013.70 1014.64 1015.71 1016.82 1017.86 1018.79 1019.55 1020.16 1020.63 1021.00 1021.31
1011.26 1011.03 1010.77 1010.56 1010.49 1010.60 1010.91 1011.39 1011.97 1012.56 1013.07 1013.42 1013.57 1013.53 1013.32 1013.04 1012.77 1012.58 1012.55 1012.70 1012.98 1013.36 1013.74 1014.05 1014.21 1014.19 1014.00 1013.70 1013.38 1013.12 1013.03 1013.19 1013.61 1014.30 1015.21 1016.24 1017.33 1018.37 1019.30 1020.07 1020.69 1021.17 1021.55 1021.87
1011.27 1011.02 1010.77 1010.59 1010.57 1010.73 1011.09 1011.59 1012.17 1012.75 1013.23 1013.55 1013.67 1013.62 1013.43 1013.18 1012.98 1012.88 1012.96 1013.21 1013.61 1014.09 1014.56 1014.94 1015.17 1015.19 1015.04 1014.75 1014.42 1014.14 1014.03 1014.14 1014.52 1015.15 1015.99 1016.98 1018.01 1019.01 1019.90 1020.66 1021.26 1021.73 1022.10 1022.41
1011.37 1011.14 1010.93 1010.80 1010.82 1011.01 1011.36 1011.83 1012.36 1012.86 1013.25 1013.50 1013.58 1013.51 1013.33 1013.14 1013.02 1013.03 1013.23 1013.60 1014.11 1014.70 1015.27 1015.74 1016.03 1016.13 1016.04 1015.81 1015.53 1015.28 1015.18 1015.28 1015.63 1016.22 1017.00 1017.92 1018.88 1019.81 1020.64 1021.34 1021.90 1022.33 1022.68 1022.98
1011.49 1011.33 1011.19 1011.12 1011.17 1011.35 1011.66 1012.05 1012.47 1012.84 1013.13 1013.28 1013.30 1013.21 1013.08 1012.96 1012.94 1013.08 1013.40 1013.89 1014.52 1015.20 1015.86 1016.41 1016.79 1016.98 1016.97 1016.84 1016.64 1016.47 1016.42 1016.55 1016.90 1017.46 1018.18 1019.02 1019.90 1020.74 1021.49 1022.12 1022.62 1023.00 1023.31 1023.59
1011.57 1011.52 1011.47 1011.48 1011.55 1011.71 1011.94 1012.22 1012.49 1012.72 1012.87 1012.93 1012.90 1012.82 1012.74 1012.72 1012.82 1013.10 1013.55 1014.16 1014.88 1015.65 1016.38 1017.00 1017.45 1017.72 1017.82 1017.79 1017.71 1017.64 1017.67 1017.86 1018.23 1018.77 1019.44 1020.20 1020.99 1021.73 1022.39 1022.94 1023.38 1023.73 1024.00 1024.25
1011.57 1011.66 1011.74 1011.82 1011.92 1012.05 1012.19 1012.34 1012.46 1012.54 1012.57 1012.54 1012.47 1012.42 1012.41 1012.51 1012.75 1013.16 1013.74 1014.45 1015.26 1016.08 1016.86 1017.52 1018.03 1018.38 1018.57 1018.65 1018.69 1018.74 1018.87 1019.12 1019.52 1020.05 1020.68 1021.37 1022.06 1022.71 1023.28 1023.76 1024.14 1024.45 1024.71 1024.94
1011.50 1011.75 1011.96 1012.12 1012.26 1012.35 1012.42 1012.44 1012.42 1012.37 1012.29 1012.19 1012.12 1012.11 1012.20 1012.42 1012.80 1013.34 1014.02 1014.82 1015.68 1016.53 1017.33 1018.01 1018.55 1018.95 1019.22 1019.41 1019.55 1019.71 1019.94 1020.26 1020.69 1021.21 1021.80 1022.42 1023.03 1023.59 1024.09 1024.50 1024.84 1025.13 1025.38 1025.61
1011.41 1011.81 1012.15 1012.40 1012.56 1012.64 1012.63 1012.56 1012.43 1012.27 1012.11 1011.98 1011.93 1011.97 1012.16 1012.50 1013.00 1013.65 1014.42 1015.28 1016.16 1017.02 1017.80 1018.47 1019.03 1019.46 1019.79 1020.06 1020.30 1020.56 1020.87 1021.25 1021.70 1022.20 1022.75 1023.30 1023.83 1024.32 1024.74 1025.11 1025.42 1025.70 1025.96 1026.21
1011.35 1011.89 1012.33 1012.65 1012.85 1012.91 1012.86 1012.72 1012.51 1012.29 1012.08 1011.95 1011.92 1012.04 1012.31 1012.76 1013.37 1014.10 1014.93 1015.81 1016.69 1017.52 1018.27 1018.93 1019.47 1019.92 1020.29 1020.62 1020.94 1021.27 1021.65 1022.06 1022.53 1023.01 1023.51 1024.00 1024.46 1024.87 1025.24 1025.57 1025.88 1026.16 1026.44 1026.71
1011.37 1012.00 1012.52 1012.90 1013.12 1013.19 1013.11 1012.93 1012.68 1012.43 1012.22 1012.10 1012.11 1012.29 1012.65 1013.18 1013.85 1014.64 1015.50 1016.37 1017.23 1018.03 1018.74 1019.36 1019.89 1020.34 1020.75 1021.13 1021.50 1021.89 1022.31 1022.75 1023.21 1023.66 1024.11 1024.53 1024.92 1025.28 1025.60 1025.91 1026.20 1026.50 1026.80 1027.09
1011.50 1012.17 1012.73 1013.13 1013.37 1013.44 1013.37 1013.18 1012.93 1012.68 1012.48 1012.40 1012.46 1012.70 1013.11 1013.69 1014.40 1015.21 1016.06 1016.92 1017.74 1018.50 1019.17 1019.76 1020.28 1020.75 1021.18 1021.59 1022.01 1022.45 1022.89 1023.34 1023.78 1024.20 1024.59 1024.96 1025.28 1025.59 1025.87 1026.16 1026.45 1026.75 1027.06 1027.37
1011.72 1012.37 1012.92 1013.33 1013.57 1013.65 1013.59 1013.43 1013.21 1012.99 1012.84 1012.80 1012.91 1013.18 1013.63 1014.23 1014.96 1015.76 1016.59 1017.41 1018.19 1018.91 1019.56 1020.13 1020.65 1021.13 1021.59 1022.05 1022.50 1022.96 1023.42 1023.86 1024.28 1024.67 1025.02 1025.33 1025.60 1025.86 1026.11 1026.38 1026.66 1026.96 1027.28 1027.59
1011.96 1012.56 1013.06 1013.45 1013.69 1013.79 1013.77 1013.65 1013.48 1013.33 1013.23 1013.25 1013.40 1013.71 1014.18 1014.78 1015.49 1016.26 1017.06 1017.84 1018.58 1019.27 1019.90 1020.47 1021.00 1021.50 1021.99 1022.48 1022.97 1023.45 1023.92 1024.35 1024.76 1025.11 1025.42 1025.68 1025.91 1026.14 1026.36 1026.61 1026.88 1027.17 1027.48 1027.78
1012.16 1012.67 1013.11 1013.47 1013.71 1013.83 1013.86 1013.81 1013.73 1013.65 1013.64 1013.72 1013.92 1014.26 1014.73 1015.32 1016.00 1016.73 1017.48 1018.22 1018.93 1019.60 1020.21 1020.79 1021.34 1021.86 1022.38 1022.90 1023.41 1023.90 1024.37 1024.80 1025.18 1025.51 1025.79 1026.03 1026.24 1026.43 1026.64 1026.87 1027.12 1027.39 1027.68 1027.95
1012.24 1012.66 1013.04 1013.36 1013.61 1013.78 1013.87 1013.91 1013.93 1013.96 1014.04 1014.20 1014.46 1014.82 1015.30 1015.87 1016.51 1017.20 1017.90 1018.60 1019.27 1019.91 1020.52 1021.10 1021.66 1022.21 1022.74 1023.28 1023.80 1024.30 1024.76 1025.18 1025.55 1025.86 1026.13 1026.35 1026.55 1026.73 1026.93 1027.14 1027.38 1027.63 1027.88 1028.11
1012.15 1012.49 1012.83 1013.14 1013.41 1013.64 1013.82 1013.98 1014.12 1014.27 1014.46 1014.71 1015.03 1015.43 1015.91 1016.46 1017.07 1017.71 1018.36 1019.01 1019.65 1020.26 1020.85 1021.42 1021.98 1022.52 1023.06 1023.59 1024.10 1024.59 1025.05 1025.46 1025.82 1026.12 1026.38 1026.61 1026.81 1027.00 1027.19 1027.40 1027.61 1027.84 1028.06 1028.25
1011.90 1012.19 1012.50 1012.82 1013.14 1013.45 1013.74 1014.03 1014.31 1014.60 1014.91 1015.26 1015.65 1016.09 1016.58 1017.12 1017.69 1018.29 1018.89 1019.49 1020.08 1020.65 1021.21 1021.75 1022.28 1022.80 1023.32 1023.82 1024.31 1024.78 1025.21 1025.60 1025.95 1026.26 1026.53 1026.77 1026.98 1027.18 1027.38 1027.59 1027.79 1027.99 1028.18 1028.33
1011.51 1011.79 1012.11 1012.47 1012.85 1013.26 1013.68 1014.10 1014.53 1014.96 1015.39 1015.84 1016.31 1016.80 1017.31 1017.84 1018.38 1018.94 1019.49 1020.04 1020.57 1021.09 1021.60 1022.09 1022.57 1023.04 1023.51 1023.96 1024.40 1024.83 1025.23 1025.61 1025.95 1026.26 1026.55 1026.80 1027.04 1027.27 1027.48 1027.69 1027.89 1028.06 1028.22 1028.34
1011.04 1011.34 1011.70 1012.11 1012.59 1013.10 1013.65 1014.21 1014.78 1015.34 1015.90 1016.45 1017.00 1017.53 1018.06 1018.59 1019.11 1019.62 1020.13 1020.62 1021.09 1021.55 1021.99 1022.41 1022.83 1023.23 1023.63 1024.02 1024.40 1024.77 1025.14 1025.49 1025.82 1026.14 1026.45 1026.73 1027.00 1027.25 1027.48 1027.69 1027.88 1028.04 1028.17 1028.27
Thickness
5662 5647 5640 5641 5642 5643 5642 5639 5636 5648 5661 5657 5655 5658 5668 5676 5679 5683 5688 5695 5702 5711 5720 5727 5732 5736 5737 5737 5735 5733 5729 5726 5724 5721 5717 5714 5712 5711 5709 5708 5706 5706 5706 5706
5646 5641 5651 5653 5649 5642 5637 5633 5636 5648 5659 5656 5651 5653 5662 5668 5671 5675 5680 5685 5692 5700 5708 5716 5722 5727 5729 5730 5729 5727 5725 5721 5719 5716 5713 5710 5706 5702 5701 5700 5698 5697 5698 5697
5644 5651 5660 5654 5648 5642 5639 5634 5639 5643 5651 5654 5650 5646 5654 5661 5666 5669 5673 5678 5683 5689 5695 5703 5709 5715 5720 5721 5721 5721 5719 5717 5715 5713 5707 5702 5697 5693 5692 5691 5689 5687 5687 5687
5644 5653 5655 5651 5648 5646 5637 5651 5649 5647 5639 5633 5642 5628 5644 5652 5654 5658 5662 5666 5671 5677 5683 5690 5696 5701 5705 5709 5713 5713 5712 5711 5709 5706 5702 5694 5689 5685 5682 5680 5678 5676 5676 5677
5647 5655 5652 5648 5652 5652 5649 5658 5653 5649 5638 5631 5635 5627 5633 5647 5646 5649 5653 5656 5660 5665 5671 5676 5682 5687 5693 5697 5701 5703 5704 5702 5699 5697 5696 5689 5682 5678 5675 5671 5666 5666 5664 5665
5652 5659 5657 5655 5661 5659 5658 5651 5644 5633 5627 5620 5631 5626 5627 5639 5645 5645 5646 5648 5651 5655 5660 5664 5669 5674 5679 5684 5689 5691 5694 5693 5690 5688 5686 5682 5676 5670 5667 5664 5659 5656 5653 5652
5643 5651 5657 5660 5652 5653 5648 5631 5615 5615 5609 5615 5631 5627 5627 5640 5645 5644 5642 5641 5642 5645 5648 5652 5656 5660 5665 5670 5674 5678 5680 5681 5678 5677 5675 5672 5667 5663 5658 5655 5652 5648 5643 5641
5627 5630 5650 5655 5650 5643 5642 5633 5613 5608 5608 5614 5627 5624 5631 5638 5639 5638 5637 5635 5635 5635 5637 5640 5643 5647 5651 5656 5661 5663 5666 5666 5665 5665 5663 5660 5657 5652 5648 5644 5641 5636 5631 5629
5625 5628 5650 5654 5655 5648 5637 5629 5631 5617 5615 5610 5615 5624 5629 5632 5631 5631 5629 5628 5626 5626 5627 5628 5631 5635 5639 5644 5647 5648 5649 5651 5651 5650 5649 5645 5643 5640 5636 5632 5629 5625 5620 5619
5636 5628 5641 5648 5650 5647 5642 5633 5617 5611 5605 5605 5614 5619 5623 5628 5627 5625 5622 5620 5618 5617 5618 5618 5620 5622 5625 5629 5632 5635 5636 5636 5635 5636 5634 5631 5628 5625 5622 5619 5616 5612 5609 5608
5639 5625 5630 5636 5636 5633 5634 5630 5621 5611 5613 5607 5605 5613 5631 5631 5630 5623 5617 5613 5610 5608 5608 5608 5608 5610 5612 5615 5618 5619 5620 5620 5619 5619 5618 5616 5613 5611 5609 5607 5603 5600 5597 5596
5634 5620 5615 5626 5638 5641 5638 5633 5623 5617 5615 5613 5609 5612 5630 5630 5625 5619 5612 5606 5602 5599 5598 5598 5598 5599 5600 5602 5603 5604 5605 5605 5604 5604 5603 5601 5599 5597 5595 5592 5589 5587 5584 5583
5631 5618 5609 5615 5623 5632 5633 5633 5629 5621 5614 5610 5609 5613 5623 5622 5616 5611 5605 5599 5595 5592 5589 5588 5588 5588 5589 5589 5590 5590 5590 5590 5590 5589 5588 5586 5584 5582 5580 5578 5576 5574 5572 5570
5636 5618 5611 5610 5615 5622 5625 5631 5629 5622 5613 5614 5619 5618 5616 5613 5609 5603 5597 5592 5587 5584 5582 5579 5578 5577 5577 5577 5577 5577 5577 5576 5575 5575 5574 5572 5570 5569 5567 5565 5563 5561 5559 5557
5635 5621 5621 5621 5626 5626 5626 5629 5629 5625 5623 5619 5621 5617 5615 5610 5605 5597 5591 5586 5582 5577 5574 5571 5568 5566 5565 5565 5564 5564 5564 5564 5563 5562 5561 5558 5557 5556 5554 5552 5550 5548 5546 5544
5629 5623 5622 5622 5627 5627 5625 5627 5628 5625 5622 5619 5616 5610 5610 5605 5598 5591 5586 5582 5576 5571 5567 5563 5560 5558 5556 5554 5553 5552 5551 5550 5551 5550 5548 5546 5545 5543 5541 5538 5536 5535 5533 5531
5623 5620 5614 5612 5620 5624 5616 5620 5621 5617 5616 5615 5611 5608 5603 5597 5592 5587 5581 5577 5571 5566 5560 5556 5552 5550 5547 5545 5544 5542 5541 5540 5539 5538 5536 5535 5533 5531 5529 5528 5525 5523 5521 5519
5623 5615 5605 5606 5613 5607 5615 5623 5621 5614 5610 5611 5609 5604 5600 5594 5586 5580 5576 5571 5564 5559 5554 5549 5545 5541 5538 5536 5534 5533 5532 5531 5529 5527 5526 5524 5522 5520 5519 5517 5514 5512 5509 5508
5629 5618 5607 5601 5604 5607 5617 5620 5617 5610 5604 5606 5603 5597 5590 5584 5578 5570 5567 5563 5558 5552 5547 5542 5538 5534 5531 5528 5526 5525 5523 5521 5519 5517 5515 5514 5513 5510 5509 5507 5505 5503 5501 5499
5626 5621 5610 5603 5604 5601 5614 5622 5621 5611 5599 5601 5599 5592 5586 5581 5574 5565 5558 5554 5548 5543 5539 5534 5530 5527 5524 5520 5519 5516 5514 5512 5510 5508 5506 5505 5504 5502 5500 5498 5496 5494 5492 5490
5623 5616 5610 5605 5604 5608 5619 5621 5620 5603 5600 5599 5595 5588 5582 5577 5572 5562 5553 5547 5541 5536 5532 5528 5524 5520 5516 5513 5511 5508 5505 5503 5502 5500 5498 5496 5495 5493 5491 5490 5488 5486 5485 5483
5621 5615 5610 5603 5604 5607 5619 5618 5611 5605 5602 5597 5590 5582 5576 5569 5563 5555 5548 5541 5535 5530 5525 5521 5517 5513 5509 5507 5504 5501 5498 5496 5494 5493 5491 5488 5487 5486 5484 5482 5480 5479 5477 5476
5622 5620 5614 5611 5609 5613 5613 5613 5609 5605 5598 5591 5584 5577 5571 5565 5557 5550 5543 5536 5530 5525 5520 5515 5511 5506 5503 5501 5499 5495 5492 5490 5488 5486 5483 5481 5479 5478 5476 5475 5473 5471 5469 5468
5626 5621 5617 5614 5615 5613 5611 5609 5606 5603 5596 5589 5583 5575 5569 5561 5553 5545 5538 5530 5524 5519 5514 5510 5506 5501 5497 5495 5493 5490 5488 5485 5483 5480 5477 5474 5472 5470 5468 5467 5465 5464 5462 5462
5631 5624 5617 5615 5615 5613 5610 5605 5602 5597 5592 5585 5577 5571 5565 5558 5549 5541 5533 5526 5520 5514 5508 5504 5500 5496 5493 5490 5487 5485 5483 5480 5477 5473 5471 5468 5466 5463 5461 5459 5457 5456 5456 5455
5634 5630 5624 5621 5621 5615 5608 5603 5600 5595 5588 5581 5574 5565 5558 5554 5546 5538 5530 5522 5516 5510 5504 5499 5495 5492 5489 5486 5483 5480 5478 5475 5471 5468 5465 5462 5459 5457 5455 5453 5451 5451 5451 5451